{"data":{"norad_id":47805,"epoch":"2026-09-20T01:36:19.297728Z","epoch_age_seconds":63202,"freshness":"FRESH","line1":"1 47805U 21018U   26263.06689002  .00023167  00000+0  82948-3 0  9998","line2":"2 47805  53.0841  60.9211 0002520 109.2386 250.8886 15.28682714306442","mean_motion":15.28682714,"eccentricity":0.000252,"inclination_deg":53.0841,"raan_deg":60.9211,"arg_perigee_deg":109.2386,"mean_anomaly_deg":250.8886,"bstar":0.00082948,"rev_number":30644,"period_min":94.198749473136,"perigee_km":478.02097133733,"apogee_km":481.47734596129,"semimajor_km":6857.8861586493,"source":"CELESTRAK","updated_at":"2026-09-20T09:00:38.747472Z"}}